This is the latest recevied weather packets stored in our database for station/object KC3UTO. If no packets are shown the sender has not sent any weather packets the latest 10 day(s).
| Time | Temp. | Humidity | Pressure | Rain* | Wind** | Luminosity | Snow |
|---|---|---|---|---|---|---|---|
| 1777733474 | 12.22° C | 49% | 1012.4 hPa | 0 mm | - | 324 W/m² | - |
| 1777733169 | 12.22° C | 46% | 1012.4 hPa | 0 mm | - | 433 W/m² | - |
| 1777732866 | 12.78° C | 47% | 1012.3 hPa | 0 mm | - | 348 W/m² | - |
| 1777732563 | 12.22° C | 52% | 1012.4 hPa | 0 mm | - | 761 W/m² | - |
| 1777732261 | 12.22° C | 50% | 1012.2 hPa | 0 mm | - | 556 W/m² | - |
| 1777731958 | 11.67° C | 51% | 1012.2 hPa | 0 mm | - | 664 W/m² | - |
| 1777731654 | 11.67° C | 51% | 1012.4 hPa | 0 mm | - | 752 W/m² | - |
| 1777731352 | 12.22° C | 52% | 1012.4 hPa | 0 mm | - | 266 W/m² | - |
| 1777731049 | 12.22° C | 51% | 1012.6 hPa | 0 mm | - | 386 W/m² | - |
| 1777730748 | 12.22° C | 52% | 1012.5 hPa | 0 mm | - | 205 W/m² | - |
| 1777730444 | 11.67° C | 53% | 1012.5 hPa | 0 mm | - | 688 W/m² | - |
| 1777730139 | 11.67° C | 56% | 1012.5 hPa | 0 mm | - | 583 W/m² | - |
| 1777729837 | 11.11° C | 61% | 1012.6 hPa | 0 mm | - | 618 W/m² | - |
| 1777729533 | 10.56° C | 57% | 1012.6 hPa | 0 mm | - | 493 W/m² | - |
| 1777729230 | 11.11° C | 57% | 1012.7 hPa | 0 mm | - | 473 W/m² | - |
| 1777728927 | 10.56° C | 58% | 1012.4 hPa | 0 mm | - | 543 W/m² | - |
| 1777728624 | 10.56° C | 58% | 1012.6 hPa | 0 mm | - | 466 W/m² | - |
| 1777728321 | 10.56° C | 58% | 1012.6 hPa | 0 mm | - | 493 W/m² | - |
| 1777728018 | 10.56° C | 60% | 1012.7 hPa | 0 mm | - | 396 W/m² | - |
| 1777727715 | 10° C | 59% | 1012.7 hPa | 0 mm | - | 362 W/m² | - |
| 1777727411 | 10° C | 60% | 1012.7 hPa | 0 mm | - | 366 W/m² | - |
| 1777727109 | 10.56° C | 61% | 1012.7 hPa | 0 mm | - | 499 W/m² | - |
| 1777726807 | 10° C | 62% | 1012.6 hPa | 0 mm | - | 502 W/m² | - |
| 1777726503 | 9.44° C | 64% | 1012.7 hPa | 0 mm | - | 204 W/m² | - |
| 1777726200 | 9.44° C | 64% | 1012.8 hPa | 0 mm | - | 178 W/m² | - |
* Rain latest hour (hover to see other rain measurements)
** Current wind speed in m/s (hover to see current wind gust speed)